Ask Your Question

Dirk Thomas's profile - karma

Dirk Thomas's karma change log

15 0 install python node with colcon ( 2020-08-03 10:19:26 -0500 )

10 0 install python node with colcon ( 2020-08-03 05:33:34 -0500 )

15 0 Colcon build include path from overlay workspace ( 2020-07-31 17:47:41 -0500 )

15 0 ROS 1 bridge requires the topic to be published both sides ( 2020-07-27 12:57:15 -0500 )

15 0 Roscore without peer to peer ( 2020-07-27 02:22:38 -0500 )

10 0 How "ImportError: No module named rospkg" happens ( 2020-07-26 20:09:52 -0500 )

10 0 Ament Cmake: How to add interface files generated from build step to library ( 2020-07-24 18:27:06 -0500 )

15 0 Ament Cmake: How to add interface files generated from build step to library ( 2020-07-24 18:27:05 -0500 )

10 0 using ament_cmake to build and use a shared library ( 2020-07-14 03:54:01 -0500 )

10 0 Getting CMake warning because of CMP0048 even after bumping up CMake Minimum Version ( 2020-07-14 01:36:43 -0500 )

15 0 Getting CMake warning because of CMP0048 even after bumping up CMake Minimum Version ( 2020-07-14 01:36:39 -0500 )

10 0 Which ROS package dependencies are redundant/implicitly included? ( 2020-07-13 20:30:04 -0500 )

15 0 Which ROS package dependencies are redundant/implicitly included? ( 2020-07-13 16:30:09 -0500 )

10 0 Which ROS package dependencies are redundant/implicitly included? ( 2020-07-13 12:20:36 -0500 )

10 0 How to disable desktop notifications for colcon? ( 2020-07-10 15:34:19 -0500 )

15 0 How to disable desktop notifications for colcon? ( 2020-07-10 14:02:05 -0500 )

10 0 dynamic reconfigure in ros2 ( 2020-07-10 07:56:36 -0500 )

10 0 How to cleanly handle dependencies in ament? ( 2020-07-10 03:36:38 -0500 )

0 -2 ImportError: No module named rospkg ( 2020-07-09 08:50:06 -0500 )

2 0 ImportError: No module named rospkg ( 2020-07-09 08:50:06 -0500 )

15 0 slow filling of uint8 data field from python ( 2020-07-09 04:36:49 -0500 )

10 0 slow filling of uint8 data field from python ( 2020-07-08 15:35:44 -0500 )

0 -2 ImportError: No module named rospkg ( 2020-07-02 09:14:34 -0500 )

10 0 get ros2 version in C++ ( 2020-06-29 07:54:37 -0500 )

10 0 how to define ROS kinetic to use python3 instead of python2.7? ( 2020-06-25 11:35:32 -0500 )

10 0 colcon test failed in python package ( 2020-06-25 00:09:27 -0500 )

15 0 colcon test failed in python package ( 2020-06-24 23:55:20 -0500 )

10 0 ROS2 - Does ros1_bridge suppports Indigo ( 2020-06-24 07:15:55 -0500 )

10 0 missing file librqt_image_view.so ( 2020-06-24 00:35:31 -0500 )

10 0 using ament_cmake to build and use a shared library ( 2020-06-23 05:10:16 -0500 )

15 0 Locate CATKIN_PACKAGE_SHARE_DESTINATION in devel space ( 2020-06-12 12:03:34 -0500 )

0 -15 Locate CATKIN_PACKAGE_SHARE_DESTINATION in devel space ( 2020-06-12 12:03:31 -0500 )

15 0 Locate CATKIN_PACKAGE_SHARE_DESTINATION in devel space ( 2020-06-12 12:03:31 -0500 )

10 0 Locate CATKIN_PACKAGE_SHARE_DESTINATION in devel space ( 2020-06-12 12:03:28 -0500 )

15 0 ROS2, TypeError when publishing custom message to Topic ( 2020-06-11 12:53:32 -0500 )

10 0 ros1_bridge build error for Turtlebot3 ( 2020-06-08 21:44:19 -0500 )

15 0 ros1_bridge build error for Turtlebot3 ( 2020-06-08 21:41:30 -0500 )

15 0 ament_copyright --add-missing gives KeyError: 'copyright_holder' ( 2020-06-05 11:18:41 -0500 )

10 0 ament_copyright --add-missing gives KeyError: 'copyright_holder' ( 2020-06-05 11:18:40 -0500 )

15 0 Python3 and python2 on package ( 2020-06-03 18:44:48 -0500 )

10 0 commands of catkin tools giving errors ( 2020-06-03 16:53:34 -0500 )

15 0 commands of catkin tools giving errors ( 2020-06-03 16:52:08 -0500 )

10 0 commands of catkin tools giving errors ( 2020-06-03 16:52:07 -0500 )

10 0 ament_flake8 fails with AttributeError ( 2020-06-01 14:04:54 -0500 )

15 0 ament_flake8 fails with AttributeError ( 2020-05-29 02:19:36 -0500 )

15 0 using ament_cmake to build and use a shared library ( 2020-05-16 17:29:01 -0500 )

0 -2 Could not determine the type for the passed topic ( 2020-05-15 11:21:36 -0500 )

10 0 Confused about publishing msgs in a synchronous way ( 2020-05-14 06:16:28 -0500 )

15 0 colcon builds "in-source" ( 2020-05-14 05:22:08 -0500 )

15 0 [ROS2] Use a different version of Fast-RTPS ( 2020-05-13 02:27:57 -0500 )

10 0 [ROS2] Use a different version of Fast-RTPS ( 2020-05-13 02:27:55 -0500 )

10 0 [ROS2] Use a different version of Fast-RTPS ( 2020-05-13 00:28:47 -0500 )

0 -10 rosdep and ROS2? ( 2020-05-06 11:13:00 -0500 )

10 0 rosdep and ROS2? ( 2020-05-06 11:13:00 -0500 )

0 -10 rosdep and ROS2? ( 2020-05-06 11:13:00 -0500 )

10 0 rosdep and ROS2? ( 2020-05-06 11:12:59 -0500 )

0 -10 rosdep and ROS2? ( 2020-05-06 11:12:59 -0500 )

10 0 rosdep and ROS2? ( 2020-05-06 11:12:58 -0500 )

0 -10 rosdep and ROS2? ( 2020-05-06 11:12:57 -0500 )

10 0 rosdep and ROS2? ( 2020-05-06 11:12:56 -0500 )

10 0 ROS not calling callbacks fast enough ( 2020-05-04 01:16:22 -0500 )

0 -2 Message-generation package not found ( 2020-04-29 09:15:32 -0500 )

15 0 Random segfaults for python rqt plugin ( 2020-04-29 06:06:22 -0500 )

10 0 Use identical package.xml for ROS1 and ROS2 pkgs ( 2020-04-28 01:31:15 -0500 )

10 0 git strategy for catkin and package folders ( 2020-04-22 09:50:59 -0500 )

0 -10 ROS2 Python relative import of my scritps ( 2020-04-20 13:55:25 -0500 )

10 0 ROS2 Python relative import of my scritps ( 2020-04-20 13:55:25 -0500 )

15 0 ROS2 Python relative import of my scritps ( 2020-04-20 13:55:21 -0500 )

15 0 ROS2 Python relative import of my scritps ( 2020-04-20 13:55:21 -0500 )

15 0 ROS2 Python relative import of my scritps ( 2020-04-20 13:55:21 -0500 )

10 0 ROS2 static compile ( 2020-04-17 10:06:08 -0500 )

10 0 ros2 turtlesim ( 2020-04-13 10:08:50 -0500 )

10 0 What is the cmake catkin variable for the workspace root dir? ( 2020-04-11 10:44:06 -0500 )

10 0 Creating Custom Message using ROS Message (or Custom Message) ( 2020-04-04 03:47:27 -0500 )

15 0 Sourcing setup.sh fails with: unexpected EOF while looking for matching `"' ( 2020-03-29 13:53:13 -0500 )

15 0 Environment setup error - term 'call' is not recognized in PowerShell ( 2020-03-26 11:49:48 -0500 )

10 0 Environment setup error - term 'call' is not recognized in PowerShell ( 2020-03-26 11:49:47 -0500 )

10 0 ROS2 conversion of .msg files into .idl files ( 2020-03-15 06:44:46 -0500 )

10 0 catkin vs rosbuild system? ( 2020-03-09 12:06:02 -0500 )

15 0 Declaring a dependency on a system package that is not available on Windows ( 2020-03-06 12:00:30 -0500 )

10 0 Declaring a dependency on a system package that is not available on Windows ( 2020-03-06 12:00:28 -0500 )

10 0 how to define ROS kinetic to use python3 instead of python2.7? ( 2020-03-05 03:55:12 -0500 )

2 0 Publishers and Subscribers in one node or two? ( 2020-03-02 11:45:01 -0500 )

0 -2 Publishers and Subscribers in one node or two? ( 2020-03-02 11:15:29 -0500 )

15 0 How to execute python scripts in their source folder when using colcon? ( 2020-02-26 03:55:10 -0500 )

10 0 How to execute python scripts in their source folder when using colcon? ( 2020-02-25 10:45:35 -0500 )

15 0 why catkin package is still needed at ROS runtime? ( 2020-02-24 22:53:24 -0500 )

10 0 The source code behind "libstd_msgs__rosidl_typesupport_c.so" ( 2020-02-19 12:04:10 -0500 )

10 0 What is the difference between local_setup.bash and setup.bash ( 2020-02-18 19:58:47 -0500 )

10 0 rosdep *_python3 style rules ( 2020-02-11 14:14:21 -0500 )

0 -2 rosdep *_python3 style rules ( 2020-02-11 12:59:53 -0500 )

15 0 How does colcon install Python dependencies in ROS2? ( 2020-02-11 08:17:58 -0500 )

10 0 How does colcon install Python dependencies in ROS2? ( 2020-02-07 20:31:39 -0500 )

10 0 Is dynamic topic remapping implemented in ROS2 Dashing? ( 2020-02-07 11:10:27 -0500 )

15 0 Is dynamic topic remapping implemented in ROS2 Dashing? ( 2020-02-07 11:10:22 -0500 )

10 0 Ubuntu 16.04 deb packages for ROS2 Bouncy Bolson? ( 2020-02-06 09:48:43 -0500 )

10 0 Whats the proper way to use a proprietary software license according to ament_copyright? ( 2020-02-05 13:20:41 -0500 )

10 0 catkin_make vs catkin_make_isolated, which is preferred? ( 2020-02-05 05:08:11 -0500 )

10 0 Creating Custom Message using ROS Message (or Custom Message) ( 2020-02-04 10:49:53 -0500 )

15 0 How can I get currently used rmw_implementation of running nodes? ( 2020-02-01 01:10:42 -0500 )